Time,TemperatureF,DewpointF,PressureIn,WindDirection,WindDirectionDegrees,WindSpeedMPH,WindSpeedGustMPH,Humidity,HourlyPrecipIn,Conditions,Clouds,dailyrainin,SoftwareType,DateUTC
2013-05-20 00:00:00,60.1,48.9,29.98,WSW,249,7.0,9.0,48,0.00,,,0.00,meteohub,2013-05-20 07:00:00,
2013-05-20 00:06:00,60.1,48.9,29.98,WSW,253,6.0,9.0,48,0.00,,,0.00,meteohub,2013-05-20 07:06:00,
2013-05-20 00:11:00,60.1,48.9,29.98,WSW,248,6.0,9.0,48,0.00,,,0.00,meteohub,2013-05-20 07:11:00,
2013-05-20 00:17:00,60.3,48.4,29.98,WSW,258,5.0,8.0,47,0.00,,,0.00,meteohub,2013-05-20 07:17:00,
2013-05-20 00:22:00,60.4,48.2,29.98,West,263,7.0,7.0,47,0.00,,,0.00,meteohub,2013-05-20 07:22:00,
2013-05-20 00:27:00,60.4,48.2,29.98,West,264,5.0,7.0,47,0.00,,,0.00,meteohub,2013-05-20 07:27:00,
2013-05-20 00:32:00,60.6,48.2,29.98,West,266,5.0,8.0,47,0.00,,,0.00,meteohub,2013-05-20 07:32:00,
2013-05-20 00:37:00,60.4,48.0,29.98,West,276,5.0,8.0,47,0.00,,,0.00,meteohub,2013-05-20 07:37:00,
2013-05-20 00:42:00,60.4,48.0,29.98,West,260,6.0,8.0,47,0.00,,,0.00,meteohub,2013-05-20 07:42:00,
2013-05-20 00:47:00,60.6,48.0,29.98,West,263,4.0,9.0,47,0.00,,,0.00,meteohub,2013-05-20 07:47:00,
2013-05-20 00:53:00,61.0,48.0,29.97,West,267,6.0,9.0,47,0.00,,,0.00,meteohub,2013-05-20 07:53:00,
2013-05-20 00:58:00,61.2,48.0,29.97,West,269,5.0,9.0,47,0.00,,,0.00,meteohub,2013-05-20 07:58:00,
2013-05-20 01:04:00,61.9,47.8,29.97,WNW,283,4.0,8.0,47,0.00,,,0.00,meteohub,2013-05-20 08:04:00,
2013-05-20 01:09:00,62.1,47.7,29.97,West,269,4.0,8.0,47,0.00,,,0.00,meteohub,2013-05-20 08:09:00,
2013-05-20 01:14:00,63.0,47.7,29.97,West,264,4.0,8.0,47,0.00,,,0.00,meteohub,2013-05-20 08:14:00,
2013-05-20 01:20:00,63.1,47.7,29.97,West,262,5.0,8.0,47,0.00,,,0.00,meteohub,2013-05-20 08:20:00,
2013-05-20 01:25:00,62.4,47.7,29.97,West,269,5.0,8.0,47,0.00,,,0.00,meteohub,2013-05-20 08:25:00,
2013-05-20 01:31:00,62.6,47.5,29.97,West,267,3.0,7.0,47,0.00,,,0.00,meteohub,2013-05-20 08:31:00,
2013-05-20 01:36:00,62.8,47.5,29.97,WNW,285,3.0,6.0,47,0.00,,,0.00,meteohub,2013-05-20 08:36:00,
2013-05-20 01:42:00,63.0,47.5,29.97,WNW,293,5.0,7.0,47,0.00,,,0.00,meteohub,2013-05-20 08:42:00,
2013-05-20 01:47:00,63.0,47.5,29.97,WNW,293,7.0,7.0,47,0.00,,,0.00,meteohub,2013-05-20 08:47:00,
2013-05-20 01:52:00,62.8,47.3,29.97,WNW,285,7.0,8.0,47,0.00,,,0.00,meteohub,2013-05-20 08:52:00,
2013-05-20 01:57:00,62.8,47.3,29.97,West,277,5.0,8.0,47,0.00,,,0.00,meteohub,2013-05-20 08:57:00,
2013-05-20 02:02:00,62.8,47.3,29.97,West,278,5.0,8.0,47,0.00,,,0.00,meteohub,2013-05-20 09:02:00,
2013-05-20 02:07:00,62.8,47.3,29.97,WNW,293,4.0,8.0,47,0.00,,,0.00,meteohub,2013-05-20 09:07:00,
2013-05-20 02:12:00,62.6,47.3,29.96,WNW,294,6.0,7.0,47,0.00,,,0.00,meteohub,2013-05-20 09:12:00,
2013-05-20 02:17:00,62.6,47.1,29.97,WNW,283,6.0,8.0,47,0.00,,,0.00,meteohub,2013-05-20 09:17:00,
2013-05-20 02:23:00,62.6,47.1,29.96,West,278,5.0,8.0,47,0.00,,,0.00,meteohub,2013-05-20 09:23:00,
2013-05-20 02:28:00,63.0,47.1,29.96,WNW,292,3.0,8.0,47,0.00,,,0.00,meteohub,2013-05-20 09:28:00,
2013-05-20 02:34:00,63.1,47.1,29.96,WNW,301,1.0,7.0,47,0.00,,,0.00,meteohub,2013-05-20 09:34:00,
2013-05-20 02:39:00,63.3,46.9,29.96,WNW,301,2.0,7.0,47,0.00,,,0.00,meteohub,2013-05-20 09:39:00,
2013-05-20 02:45:00,63.7,46.9,29.96,WNW,300,0.0,6.0,47,0.00,,,0.00,meteohub,2013-05-20 09:45:00,
2013-05-20 02:50:00,64.0,46.9,29.96,WNW,301,1.0,2.0,47,0.00,,,0.00,meteohub,2013-05-20 09:50:00,
2013-05-20 02:56:00,64.0,46.2,29.96,WNW,301,1.0,2.0,46,0.00,,,0.00,meteohub,2013-05-20 09:56:00,
2013-05-20 03:01:00,64.2,46.2,29.96,WNW,301,1.0,1.0,46,0.00,,,0.00,meteohub,2013-05-20 10:01:00,
2013-05-20 03:07:00,64.2,46.2,29.96,WNW,301,1.0,2.0,46,0.00,,,0.00,meteohub,2013-05-20 10:07:00,
2013-05-20 03:12:00,64.0,46.0,29.96,NE,49,2.0,3.0,46,0.00,,,0.00,meteohub,2013-05-20 10:12:00,
2013-05-20 03:17:00,64.2,46.0,29.96,NE,39,2.0,4.0,46,0.00,,,0.00,meteohub,2013-05-20 10:17:00,
2013-05-20 03:22:00,64.4,46.0,29.96,NE,42,4.0,5.0,46,0.00,,,0.00,meteohub,2013-05-20 10:22:00,
2013-05-20 03:28:00,64.6,46.0,29.96,NE,49,4.0,5.0,46,0.00,,,0.00,meteohub,2013-05-20 10:28:00,
2013-05-20 03:33:00,64.4,46.0,29.96,ENE,60,3.0,6.0,46,0.00,,,0.00,meteohub,2013-05-20 10:33:00,
2013-05-20 03:38:00,64.0,46.0,29.96,NE,47,3.0,6.0,46,0.00,,,0.00,meteohub,2013-05-20 10:38:00,
2013-05-20 03:44:00,63.9,46.0,29.96,NE,44,3.0,6.0,46,0.00,,,0.00,meteohub,2013-05-20 10:44:00,
2013-05-20 03:49:00,63.7,46.0,29.96,NE,44,3.0,5.0,46,0.00,,,0.00,meteohub,2013-05-20 10:49:00,
2013-05-20 03:54:00,63.5,45.9,29.96,NE,44,3.0,5.0,46,0.00,,,0.00,meteohub,2013-05-20 10:54:00,
2013-05-20 04:00:00,63.9,45.9,29.96,ENE,57,3.0,5.0,46,0.00,,,0.00,meteohub,2013-05-20 11:00:00,
2013-05-20 04:05:00,63.9,45.9,29.96,ENE,58,4.0,4.0,46,0.00,,,0.00,meteohub,2013-05-20 11:05:00,
2013-05-20 04:10:00,63.9,45.9,29.96,NE,41,4.0,6.0,46,0.00,,,0.00,meteohub,2013-05-20 11:10:00,
2013-05-20 04:15:00,63.7,45.7,29.96,ENE,65,2.0,6.0,46,0.00,,,0.00,meteohub,2013-05-20 11:15:00,
2013-05-20 04:20:00,63.9,45.7,29.96,ENE,74,5.0,9.0,46,0.00,,,0.00,meteohub,2013-05-20 11:20:00,
2013-05-20 04:26:00,64.2,45.7,29.96,NE,40,5.0,9.0,46,0.00,,,0.00,meteohub,2013-05-20 11:26:00,
2013-05-20 04:31:00,64.2,45.5,29.96,ENE,74,6.0,9.0,46,0.00,,,0.00,meteohub,2013-05-20 11:31:00,
2013-05-20 04:36:00,64.2,45.5,29.96,ESE,111,6.0,9.0,46,0.00,,,0.00,meteohub,2013-05-20 11:36:00,
2013-05-20 04:42:00,64.2,45.5,29.96,NE,49,5.0,9.0,46,0.00,,,0.00,meteohub,2013-05-20 11:42:00,
2013-05-20 04:47:00,64.0,45.5,29.96,NNE,23,7.0,9.0,46,0.00,,,0.00,meteohub,2013-05-20 11:47:00,
2013-05-20 04:52:00,64.0,45.3,29.96,NNE,32,5.0,11.0,46,0.00,,,0.00,meteohub,2013-05-20 11:52:00,
2013-05-20 04:57:00,63.9,45.3,29.96,NE,37,6.0,11.0,46,0.00,,,0.00,meteohub,2013-05-20 11:57:00,
2013-05-20 05:03:00,63.9,45.3,29.96,ENE,65,5.0,11.0,46,0.00,,,0.00,meteohub,2013-05-20 12:03:00,
2013-05-20 05:08:00,63.9,45.3,29.96,ENE,63,7.0,10.0,46,0.00,,,0.00,meteohub,2013-05-20 12:08:00,
2013-05-20 05:14:00,63.9,45.1,29.96,NNE,24,6.0,10.0,46,0.00,,,0.00,meteohub,2013-05-20 12:14:00,
2013-05-20 05:19:00,63.9,44.6,29.96,ENE,60,8.0,12.0,45,0.00,,,0.00,meteohub,2013-05-20 12:19:00,
2013-05-20 05:25:00,63.9,44.6,29.96,NE,53,8.0,12.0,45,0.00,,,0.00,meteohub,2013-05-20 12:25:00,
2013-05-20 05:30:00,63.9,44.4,29.96,NE,51,9.0,12.0,45,0.00,,,0.00,meteohub,2013-05-20 12:30:00,
2013-05-20 05:36:00,63.7,44.4,29.96,NE,50,8.0,11.0,45,0.00,,,0.00,meteohub,2013-05-20 12:36:00,
2013-05-20 05:41:00,63.7,44.4,29.96,East,86,8.0,11.0,45,0.00,,,0.00,meteohub,2013-05-20 12:41:00,
2013-05-20 05:46:00,63.9,44.4,29.96,ENE,68,5.0,11.0,45,0.00,,,0.00,meteohub,2013-05-20 12:46:00,
2013-05-20 05:52:00,63.9,44.4,29.96,ENE,60,5.0,11.0,45,0.00,,,0.00,meteohub,2013-05-20 12:52:00,
2013-05-20 05:57:00,64.0,44.4,29.96,ENE,70,9.0,11.0,45,0.00,,,0.00,meteohub,2013-05-20 12:57:00,
2013-05-20 06:02:00,64.6,44.2,29.96,ENE,68,8.0,14.0,45,0.00,,,0.00,meteohub,2013-05-20 13:02:00,
2013-05-20 06:07:00,64.8,44.2,29.96,ENE,67,9.0,14.0,45,0.00,,,0.00,meteohub,2013-05-20 13:07:00,
2013-05-20 06:12:00,64.9,44.1,29.96,East,93,12.0,14.0,45,0.00,,,0.00,meteohub,2013-05-20 13:12:00,
2013-05-20 06:18:00,64.9,44.1,29.97,NE,34,10.0,13.0,45,0.00,,,0.00,meteohub,2013-05-20 13:18:00,
2013-05-20 06:23:00,65.1,44.1,29.97,ENE,71,6.0,13.0,45,0.00,,,0.00,meteohub,2013-05-20 13:23:00,
2013-05-20 06:28:00,65.3,44.1,29.97,NE,47,12.0,12.0,45,0.00,,,0.00,meteohub,2013-05-20 13:28:00,
2013-05-20 06:34:00,65.3,44.1,29.97,ENE,59,7.0,13.0,45,0.00,,,0.00,meteohub,2013-05-20 13:34:00,
2013-05-20 06:39:00,65.1,44.1,29.97,NE,37,11.0,17.0,45,0.00,,,0.00,meteohub,2013-05-20 13:39:00,
2013-05-20 06:44:00,65.1,43.9,29.97,ENE,58,10.0,17.0,45,0.00,,,0.00,meteohub,2013-05-20 13:44:00,
2013-05-20 06:50:00,65.1,43.9,29.97,ENE,59,11.0,19.0,45,0.00,,,0.00,meteohub,2013-05-20 13:50:00,
2013-05-20 06:55:00,65.1,43.9,29.97,NE,42,13.0,19.0,45,0.00,,,0.00,meteohub,2013-05-20 13:55:00,
2013-05-20 07:00:00,64.9,43.9,29.98,NE,50,12.0,19.0,45,0.00,,,0.00,meteohub,2013-05-20 14:00:00,
2013-05-20 07:05:00,64.9,43.9,29.98,NNE,29,13.0,19.0,45,0.00,,,0.00,meteohub,2013-05-20 14:05:00,
2013-05-20 07:11:00,64.9,43.9,29.98,NE,56,9.0,20.0,45,0.00,,,0.00,meteohub,2013-05-20 14:11:00,
2013-05-20 07:16:00,65.1,43.7,29.98,NE,56,13.0,20.0,45,0.00,,,0.00,meteohub,2013-05-20 14:16:00,
2013-05-20 07:21:00,65.1,43.7,29.98,NNE,29,10.0,20.0,45,0.00,,,0.00,meteohub,2013-05-20 14:21:00,
2013-05-20 07:27:00,65.1,43.7,29.99,NNE,33,10.0,20.0,45,0.00,,,0.00,meteohub,2013-05-20 14:27:00,
2013-05-20 07:32:00,65.3,43.7,29.99,ENE,58,11.0,19.0,45,0.00,,,0.00,meteohub,2013-05-20 14:32:00,
2013-05-20 07:37:00,65.5,43.7,29.99,NNE,33,10.0,18.0,45,0.00,,,0.00,meteohub,2013-05-20 14:37:00,
2013-05-20 07:42:00,65.5,43.7,29.99,NE,37,11.0,18.0,45,0.00,,,0.00,meteohub,2013-05-20 14:42:00,
2013-05-20 07:47:00,65.7,43.7,29.99,ENE,75,11.0,18.0,45,0.00,,,0.00,meteohub,2013-05-20 14:47:00,
2013-05-20 07:52:00,65.7,43.7,29.99,NE,49,10.0,18.0,45,0.00,,,0.00,meteohub,2013-05-20 14:52:00,
2013-05-20 07:58:00,65.8,43.7,29.99,NE,45,13.0,19.0,45,0.00,,,0.00,meteohub,2013-05-20 14:58:00,
2013-05-20 08:03:00,65.7,43.7,29.99,NE,49,7.0,20.0,45,0.00,,,0.00,meteohub,2013-05-20 15:03:00,
2013-05-20 08:08:00,65.8,43.7,29.99,NE,50,15.0,20.0,45,0.00,,,0.00,meteohub,2013-05-20 15:08:00,
2013-05-20 08:14:00,66.0,43.7,29.99,NE,46,12.0,21.0,45,0.00,,,0.00,meteohub,2013-05-20 15:14:00,
2013-05-20 08:19:00,66.0,43.7,29.99,NE,36,8.0,21.0,45,0.00,,,0.00,meteohub,2013-05-20 15:19:00,
2013-05-20 08:25:00,66.4,43.7,29.99,NE,39,7.0,21.0,45,0.00,,,0.00,meteohub,2013-05-20 15:25:00,
2013-05-20 08:30:00,66.2,43.7,29.99,ENE,58,12.0,21.0,45,0.00,,,0.00,meteohub,2013-05-20 15:30:00,
2013-05-20 08:35:00,66.6,43.7,29.99,ENE,60,10.0,19.0,45,0.00,,,0.00,meteohub,2013-05-20 15:35:00,
2013-05-20 08:41:00,66.6,43.7,30.00,NNE,18,12.0,19.0,45,0.00,,,0.00,meteohub,2013-05-20 15:41:00,
2013-05-20 08:46:00,66.9,43.7,30.00,NNE,32,11.0,21.0,45,0.00,,,0.00,meteohub,2013-05-20 15:46:00,
2013-05-20 08:52:00,66.7,43.7,30.00,NE,56,9.0,21.0,45,0.00,,,0.00,meteohub,2013-05-20 15:52:00,
2013-05-20 08:57:00,67.5,44.2,30.00,ENE,72,9.0,21.0,46,0.00,,,0.00,meteohub,2013-05-20 15:57:00,
2013-05-20 09:02:00,67.3,44.2,30.00,NE,42,9.0,20.0,46,0.00,,,0.00,meteohub,2013-05-20 16:02:00,
2013-05-20 09:07:00,67.5,44.2,30.00,East,81,13.0,18.0,46,0.00,,,0.00,meteohub,2013-05-20 16:07:00,
2013-05-20 09:13:00,67.3,44.2,30.00,NE,37,8.0,20.0,46,0.00,,,0.00,meteohub,2013-05-20 16:13:00,
2013-05-20 09:18:00,67.6,44.2,30.00,North,359,9.0,20.0,46,0.00,,,0.00,meteohub,2013-05-20 16:18:00,
2013-05-20 09:24:00,67.8,44.2,30.00,ENE,63,7.0,20.0,46,0.00,,,0.00,meteohub,2013-05-20 16:24:00,
2013-05-20 09:29:00,67.6,44.2,30.00,NE,45,13.0,19.0,46,0.00,,,0.00,meteohub,2013-05-20 16:29:00,
2013-05-20 09:34:00,68.0,44.2,30.00,NE,50,8.0,19.0,46,0.00,,,0.00,meteohub,2013-05-20 16:34:00,
2013-05-20 09:40:00,68.2,44.2,30.00,NE,53,15.0,19.0,46,0.00,,,0.00,meteohub,2013-05-20 16:40:00,
2013-05-20 09:45:00,67.8,44.4,30.00,ENE,61,14.0,18.0,46,0.00,,,0.00,meteohub,2013-05-20 16:45:00,
2013-05-20 09:50:00,67.8,44.4,30.00,NE,40,14.0,21.0,46,0.00,,,0.00,meteohub,2013-05-20 16:50:00,
2013-05-20 09:56:00,68.2,44.4,30.00,NE,38,8.0,22.0,46,0.00,,,0.00,meteohub,2013-05-20 16:56:00,
2013-05-20 10:01:00,68.4,44.4,30.01,East,82,13.0,22.0,46,0.00,,,0.00,meteohub,2013-05-20 17:01:00,
2013-05-20 10:06:00,68.4,44.4,30.01,East,79,12.0,22.0,46,0.00,,,0.00,meteohub,2013-05-20 17:06:00,
2013-05-20 10:12:00,68.4,44.4,30.01,NE,49,7.0,20.0,46,0.00,,,0.00,meteohub,2013-05-20 17:12:00,
2013-05-20 10:17:00,69.3,44.4,30.01,ENE,74,10.0,20.0,46,0.00,,,0.00,meteohub,2013-05-20 17:17:00,
2013-05-20 10:22:00,69.1,44.4,30.01,NE,34,9.0,18.0,46,0.00,,,0.00,meteohub,2013-05-20 17:22:00,
2013-05-20 10:27:00,69.3,44.4,30.01,East,82,11.0,18.0,46,0.00,,,0.00,meteohub,2013-05-20 17:27:00,
2013-05-20 10:33:00,69.1,44.6,30.01,East,86,15.0,18.0,46,0.00,,,0.00,meteohub,2013-05-20 17:33:00,
2013-05-20 10:38:00,69.1,44.6,30.01,East,86,7.0,17.0,46,0.00,,,0.00,meteohub,2013-05-20 17:38:00,
2013-05-20 10:44:00,69.6,44.6,30.01,East,84,13.0,17.0,46,0.00,,,0.00,meteohub,2013-05-20 17:44:00,
2013-05-20 10:49:00,69.4,44.6,30.01,NE,43,7.0,17.0,46,0.00,,,0.00,meteohub,2013-05-20 17:49:00,
2013-05-20 10:55:00,69.6,44.6,30.01,NE,49,7.0,18.0,46,0.00,,,0.00,meteohub,2013-05-20 17:55:00,
2013-05-20 11:00:00,69.6,44.8,30.01,NNE,20,10.0,18.0,46,0.00,,,0.00,meteohub,2013-05-20 18:00:00,
2013-05-20 11:05:00,70.0,44.8,30.01,NE,56,5.0,18.0,46,0.00,,,0.00,meteohub,2013-05-20 18:05:00,
2013-05-20 11:11:00,70.9,44.8,30.01,NE,40,13.0,20.0,46,0.00,,,0.00,meteohub,2013-05-20 18:11:00,
2013-05-20 11:16:00,70.5,45.0,30.01,NNE,33,10.0,23.0,46,0.00,,,0.00,meteohub,2013-05-20 18:16:00,
2013-05-20 11:21:00,70.5,45.0,30.01,North,11,16.0,23.0,46,0.00,,,0.00,meteohub,2013-05-20 18:21:00,
2013-05-20 11:27:00,71.1,45.0,30.01,North,11,8.0,23.0,46,0.00,,,0.00,meteohub,2013-05-20 18:27:00,
2013-05-20 11:32:00,71.2,45.0,30.00,ENE,59,10.0,19.0,46,0.00,,,0.00,meteohub,2013-05-20 18:32:00,
2013-05-20 11:37:00,71.6,44.4,30.01,NE,40,10.0,19.0,45,0.00,,,0.00,meteohub,2013-05-20 18:37:00,
2013-05-20 11:42:00,70.9,44.6,30.01,East,81,16.0,18.0,45,0.00,,,0.00,meteohub,2013-05-20 18:42:00,
2013-05-20 11:47:00,71.1,45.1,30.01,NNE,27,9.0,18.0,46,0.00,,,0.00,meteohub,2013-05-20 18:47:00,
2013-05-20 11:52:00,70.5,45.1,30.01,NE,37,14.0,18.0,46,0.00,,,0.00,meteohub,2013-05-20 18:52:00,
2013-05-20 11:57:00,70.2,45.1,30.01,NE,44,10.0,19.0,46,0.00,,,0.00,meteohub,2013-05-20 18:57:00,
2013-05-20 12:03:00,70.3,45.3,30.01,NE,39,8.0,19.0,46,0.00,,,0.00,meteohub,2013-05-20 19:03:00,
2013-05-20 12:08:00,70.5,45.3,30.01,ENE,63,7.0,19.0,46,0.00,,,0.00,meteohub,2013-05-20 19:08:00,
2013-05-20 12:14:00,71.4,45.3,30.01,NE,41,9.0,18.0,46,0.00,,,0.00,meteohub,2013-05-20 19:14:00,
2013-05-20 12:19:00,71.6,45.5,30.00,NE,56,12.0,18.0,46,0.00,,,0.00,meteohub,2013-05-20 19:19:00,
2013-05-20 12:25:00,71.1,45.5,30.00,ENE,57,8.0,18.0,46,0.00,,,0.00,meteohub,2013-05-20 19:25:00,
2013-05-20 12:30:00,71.2,45.5,30.00,NE,46,6.0,20.0,46,0.00,,,0.00,meteohub,2013-05-20 19:30:00,
2013-05-20 12:35:00,71.8,45.5,30.00,ENE,75,6.0,20.0,46,0.00,,,0.00,meteohub,2013-05-20 19:35:00,
2013-05-20 12:41:00,71.6,45.7,30.00,ENE,73,12.0,16.0,46,0.00,,,0.00,meteohub,2013-05-20 19:41:00,
2013-05-20 12:46:00,71.8,45.7,30.00,ENE,58,10.0,16.0,46,0.00,,,0.00,meteohub,2013-05-20 19:46:00,
2013-05-20 12:52:00,71.8,45.9,30.00,ENE,65,13.0,18.0,46,0.00,,,0.00,meteohub,2013-05-20 19:52:00,
2013-05-20 12:57:00,71.2,45.9,30.00,East,89,15.0,18.0,46,0.00,,,0.00,meteohub,2013-05-20 19:57:00,
2013-05-20 13:02:00,72.1,45.9,30.00,ENE,72,7.0,18.0,46,0.00,,,0.00,meteohub,2013-05-20 20:02:00,
2013-05-20 13:07:00,72.0,46.0,30.00,ENE,76,8.0,17.0,46,0.00,,,0.00,meteohub,2013-05-20 20:07:00,
2013-05-20 13:12:00,72.1,46.0,30.00,East,101,7.0,17.0,46,0.00,,,0.00,meteohub,2013-05-20 20:12:00,
2013-05-20 13:17:00,72.1,46.0,30.00,East,94,9.0,17.0,46,0.00,,,0.00,meteohub,2013-05-20 20:17:00,
2013-05-20 13:22:00,72.1,46.0,30.00,East,101,5.0,15.0,46,0.00,,,0.00,meteohub,2013-05-20 20:22:00,
2013-05-20 13:27:00,72.9,46.0,30.00,NE,43,13.0,15.0,46,0.00,,,0.00,meteohub,2013-05-20 20:27:00,
2013-05-20 13:32:00,72.1,46.0,30.01,ENE,63,5.0,18.0,46,0.00,,,0.00,meteohub,2013-05-20 20:32:00,
2013-05-20 13:37:00,72.5,46.2,30.00,East,84,2.0,18.0,46,0.00,,,0.00,meteohub,2013-05-20 20:37:00,
2013-05-20 13:42:00,72.3,46.2,30.00,East,99,7.0,18.0,46,0.00,,,0.00,meteohub,2013-05-20 20:42:00,
2013-05-20 13:47:00,72.0,46.2,30.00,NE,56,5.0,14.0,46,0.00,,,0.00,meteohub,2013-05-20 20:47:00,
2013-05-20 13:52:00,72.3,46.4,29.99,ENE,63,5.0,16.0,46,0.00,,,0.00,meteohub,2013-05-20 20:52:00,
2013-05-20 13:58:00,73.0,46.6,29.99,East,84,6.0,16.0,46,0.00,,,0.00,meteohub,2013-05-20 20:58:00,
2013-05-20 14:03:00,73.2,46.6,30.00,ENE,59,6.0,14.0,46,0.00,,,0.00,meteohub,2013-05-20 21:03:00,
2013-05-20 14:09:00,73.6,46.6,30.00,NE,50,12.0,14.0,46,0.00,,,0.00,meteohub,2013-05-20 21:09:00,
2013-05-20 14:14:00,72.9,46.8,29.99,NE,43,6.0,16.0,46,0.00,,,0.00,meteohub,2013-05-20 21:14:00,
2013-05-20 14:19:00,72.3,46.8,30.00,ENE,67,10.0,16.0,46,0.00,,,0.00,meteohub,2013-05-20 21:19:00,
2013-05-20 14:25:00,73.0,46.8,30.00,NE,46,7.0,16.0,46,0.00,,,0.00,meteohub,2013-05-20 21:25:00,
2013-05-20 14:30:00,73.2,47.5,29.99,ESE,110,1.0,11.0,47,0.00,,,0.00,meteohub,2013-05-20 21:30:00,
2013-05-20 14:36:00,73.8,47.5,29.99,West,267,6.0,9.0,47,0.00,,,0.00,meteohub,2013-05-20 21:36:00,
2013-05-20 14:41:00,73.8,47.7,29.99,NNW,328,3.0,12.0,47,0.00,,,0.00,meteohub,2013-05-20 21:41:00,
2013-05-20 14:47:00,73.9,47.7,29.99,NE,40,7.0,12.0,47,0.00,,,0.00,meteohub,2013-05-20 21:47:00,
2013-05-20 14:52:00,73.9,47.8,29.99,West,260,1.0,12.0,47,0.00,,,0.00,meteohub,2013-05-20 21:52:00,
2013-05-20 14:57:00,74.7,47.8,29.99,ENE,61,2.0,10.0,47,0.00,,,0.00,meteohub,2013-05-20 21:57:00,
2013-05-20 15:02:00,74.8,48.0,29.99,NE,44,1.0,10.0,47,0.00,,,0.00,meteohub,2013-05-20 22:02:00,
2013-05-20 15:07:00,75.4,48.0,29.99,NNE,31,5.0,9.0,47,0.00,,,0.00,meteohub,2013-05-20 22:07:00,
2013-05-20 15:12:00,75.7,48.2,29.98,NE,56,4.0,9.0,47,0.00,,,0.00,meteohub,2013-05-20 22:12:00,
2013-05-20 15:17:00,75.4,48.2,29.98,NNE,26,1.0,9.0,47,0.00,,,0.00,meteohub,2013-05-20 22:17:00,
2013-05-20 15:22:00,75.9,48.4,29.98,ENE,77,3.0,9.0,47,0.00,,,0.00,meteohub,2013-05-20 22:22:00,
2013-05-20 15:27:00,76.5,48.4,29.98,NE,50,2.0,9.0,47,0.00,,,0.00,meteohub,2013-05-20 22:27:00,
2013-05-20 15:32:00,76.5,48.6,29.97,WNW,288,12.0,12.0,47,0.00,,,0.00,meteohub,2013-05-20 22:32:00,
2013-05-20 15:38:00,75.0,48.6,29.97,WNW,282,10.0,16.0,47,0.00,,,0.00,meteohub,2013-05-20 22:38:00,
2013-05-20 15:43:00,74.8,48.7,29.97,West,263,8.0,17.0,47,0.00,,,0.00,meteohub,2013-05-20 22:43:00,
2013-05-20 15:48:00,75.0,48.7,29.96,WSW,240,8.0,17.0,47,0.00,,,0.00,meteohub,2013-05-20 22:48:00,
2013-05-20 15:53:00,74.8,48.7,29.96,WNW,292,7.0,17.0,47,0.00,,,0.00,meteohub,2013-05-20 22:53:00,
2013-05-20 15:59:00,75.7,48.9,29.96,SW,231,8.0,17.0,47,0.00,,,0.00,meteohub,2013-05-20 22:59:00,
2013-05-20 16:04:00,75.7,48.9,29.96,WSW,253,7.0,17.0,47,0.00,,,0.00,meteohub,2013-05-20 23:04:00,
2013-05-20 16:09:00,75.4,49.1,29.96,SW,226,6.0,16.0,47,0.00,,,0.00,meteohub,2013-05-20 23:09:00,
2013-05-20 16:15:00,75.4,49.1,29.96,WSW,245,9.0,14.0,47,0.00,,,0.00,meteohub,2013-05-20 23:15:00,
2013-05-20 16:20:00,75.0,49.3,29.96,WNW,285,13.0,16.0,47,0.00,,,0.00,meteohub,2013-05-20 23:20:00,
2013-05-20 16:26:00,74.1,49.3,29.96,WSW,252,16.0,20.0,47,0.00,,,0.00,meteohub,2013-05-20 23:26:00,
2013-05-20 16:31:00,74.1,49.5,29.96,West,263,10.0,20.0,47,0.00,,,0.00,meteohub,2013-05-20 23:31:00,
2013-05-20 16:37:00,73.8,49.6,29.95,West,274,9.0,20.0,47,0.00,,,0.00,meteohub,2013-05-20 23:37:00,
2013-05-20 16:42:00,73.9,49.6,29.95,WNW,284,6.0,16.0,47,0.00,,,0.00,meteohub,2013-05-20 23:42:00,
2013-05-20 16:47:00,73.9,49.8,29.95,WSW,252,7.0,15.0,47,0.00,,,0.00,meteohub,2013-05-20 23:47:00,
2013-05-20 16:52:00,74.5,49.8,29.95,East,96,5.0,14.0,47,0.00,,,0.00,meteohub,2013-05-20 23:52:00,
2013-05-20 16:57:00,73.9,50.0,29.95,West,267,11.0,14.0,47,0.00,,,0.00,meteohub,2013-05-20 23:57:00,
2013-05-20 17:02:00,72.9,50.0,29.95,WSW,246,6.0,15.0,47,0.00,,,0.00,meteohub,2013-05-21 00:02:00,
2013-05-20 17:07:00,73.8,50.2,29.94,SSW,200,12.0,15.0,47,0.00,,,0.00,meteohub,2013-05-21 00:07:00,
2013-05-20 17:12:00,73.8,50.2,29.95,WSW,246,11.0,15.0,47,0.00,,,0.00,meteohub,2013-05-21 00:12:00,
2013-05-20 17:17:00,73.8,50.4,29.95,WSW,249,9.0,14.0,47,0.00,,,0.00,meteohub,2013-05-21 00:17:00,
2013-05-20 17:22:00,72.9,50.5,29.94,ENE,75,4.0,15.0,47,0.00,,,0.00,meteohub,2013-05-21 00:22:00,
2013-05-20 17:27:00,72.7,50.5,29.94,NW,308,4.0,15.0,47,0.00,,,0.00,meteohub,2013-05-21 00:27:00,
2013-05-20 17:32:00,72.5,50.7,29.94,NW,309,5.0,15.0,47,0.00,,,0.00,meteohub,2013-05-21 00:32:00,
2013-05-20 17:37:00,72.7,50.7,29.94,West,263,10.0,14.0,47,0.00,,,0.00,meteohub,2013-05-21 00:37:00,
2013-05-20 17:42:00,72.9,50.7,29.94,West,280,4.0,14.0,47,0.00,,,0.00,meteohub,2013-05-21 00:42:00,
2013-05-20 17:47:00,72.9,50.7,29.94,West,273,10.0,14.0,47,0.00,,,0.00,meteohub,2013-05-21 00:47:00,
2013-05-20 17:53:00,72.1,50.9,29.94,SW,236,11.0,14.0,47,0.00,,,0.00,meteohub,2013-05-21 00:53:00,
2013-05-20 17:58:00,71.6,50.9,29.94,West,262,3.0,14.0,47,0.00,,,0.00,meteohub,2013-05-21 00:58:00,
2013-05-20 18:04:00,71.6,51.1,29.94,WSW,242,4.0,14.0,47,0.00,,,0.00,meteohub,2013-05-21 01:04:00,
2013-05-20 18:09:00,71.4,51.3,29.93,West,263,5.0,13.0,47,0.00,,,0.00,meteohub,2013-05-21 01:09:00,
2013-05-20 18:14:00,71.1,51.3,29.94,WSW,242,6.0,13.0,47,0.00,,,0.00,meteohub,2013-05-21 01:14:00,
2013-05-20 18:19:00,70.7,51.3,29.93,West,280,7.0,13.0,47,0.00,,,0.00,meteohub,2013-05-21 01:19:00,
2013-05-20 18:24:00,70.9,51.4,29.93,NE,34,4.0,12.0,47,0.00,,,0.00,meteohub,2013-05-21 01:24:00,
2013-05-20 18:30:00,70.5,51.4,29.94,SW,217,4.0,12.0,47,0.00,,,0.00,meteohub,2013-05-21 01:30:00,
2013-05-20 18:35:00,70.3,51.6,29.93,WSW,243,6.0,11.0,47,0.00,,,0.00,meteohub,2013-05-21 01:35:00,
2013-05-20 18:41:00,70.0,51.6,29.93,SW,232,6.0,10.0,47,0.00,,,0.00,meteohub,2013-05-21 01:41:00,
2013-05-20 18:46:00,70.0,51.6,29.93,SSE,162,2.0,9.0,47,0.00,,,0.00,meteohub,2013-05-21 01:46:00,
2013-05-20 18:52:00,70.0,51.8,29.93,WSW,257,2.0,9.0,47,0.00,,,0.00,meteohub,2013-05-21 01:52:00,
2013-05-20 18:57:00,69.6,51.8,29.93,West,276,3.0,9.0,47,0.00,,,0.00,meteohub,2013-05-21 01:57:00,
2013-05-20 19:02:00,69.1,51.3,29.93,WSW,252,3.0,9.0,46,0.00,,,0.00,meteohub,2013-05-21 02:02:00,
2013-05-20 19:07:00,68.9,51.4,29.93,West,260,1.0,8.0,46,0.00,,,0.00,meteohub,2013-05-21 02:07:00,
2013-05-20 19:12:00,68.7,51.4,29.93,WSW,238,6.0,8.0,46,0.00,,,0.00,meteohub,2013-05-21 02:12:00,
2013-05-20 19:17:00,68.5,51.4,29.93,WSW,242,5.0,8.0,46,0.00,,,0.00,meteohub,2013-05-21 02:17:00,
2013-05-20 19:22:00,67.6,51.4,29.93,WSW,242,4.0,8.0,46,0.00,,,0.00,meteohub,2013-05-21 02:22:00,
2013-05-20 19:27:00,66.9,51.4,29.93,WSW,238,5.0,7.0,46,0.00,,,0.00,meteohub,2013-05-21 02:27:00,
2013-05-20 19:32:00,66.6,51.4,29.93,WSW,253,5.0,6.0,46,0.00,,,0.00,meteohub,2013-05-21 02:32:00,
2013-05-20 19:37:00,66.4,51.4,29.93,WSW,249,5.0,6.0,46,0.00,,,0.00,meteohub,2013-05-21 02:37:00,
2013-05-20 19:42:00,66.4,51.4,29.94,West,262,4.0,6.0,46,0.00,,,0.00,meteohub,2013-05-21 02:42:00,
2013-05-20 19:48:00,66.2,51.4,29.94,WSW,256,4.0,6.0,46,0.00,,,0.00,meteohub,2013-05-21 02:48:00,
2013-05-20 19:53:00,66.2,51.4,29.94,WSW,252,4.0,6.0,46,0.00,,,0.00,meteohub,2013-05-21 02:53:00,
2013-05-20 19:59:00,66.4,51.4,29.94,West,269,3.0,5.0,46,0.00,,,0.00,meteohub,2013-05-21 02:59:00,
2013-05-20 20:04:00,66.6,51.4,29.94,West,276,4.0,6.0,46,0.00,,,0.00,meteohub,2013-05-21 03:04:00,
2013-05-20 20:10:00,66.6,51.4,29.94,West,277,3.0,6.0,46,0.00,,,0.00,meteohub,2013-05-21 03:10:00,
2013-05-20 20:15:00,66.6,51.4,29.94,West,267,3.0,6.0,46,0.00,,,0.00,meteohub,2013-05-21 03:15:00,
2013-05-20 20:21:00,66.7,51.4,29.94,West,262,5.0,6.0,46,0.00,,,0.00,meteohub,2013-05-21 03:21:00,
2013-05-20 20:26:00,66.7,51.4,29.94,West,270,2.0,6.0,46,0.00,,,0.00,meteohub,2013-05-21 03:26:00,
2013-05-20 20:32:00,66.7,50.9,29.94,West,262,3.0,6.0,45,0.00,,,0.00,meteohub,2013-05-21 03:32:00,
2013-05-20 20:37:00,66.7,50.9,29.94,West,270,3.0,6.0,45,0.00,,,0.00,meteohub,2013-05-21 03:37:00,
2013-05-20 20:42:00,66.7,50.9,29.94,West,270,4.0,5.0,45,0.00,,,0.00,meteohub,2013-05-21 03:42:00,
2013-05-20 20:47:00,66.7,50.9,29.95,West,270,4.0,5.0,45,0.00,,,0.00,meteohub,2013-05-21 03:47:00,
2013-05-20 20:52:00,66.7,50.9,29.95,WSW,257,4.0,5.0,45,0.00,,,0.00,meteohub,2013-05-21 03:52:00,
2013-05-20 20:57:00,66.6,50.9,29.95,West,264,5.0,5.0,45,0.00,,,0.00,meteohub,2013-05-21 03:57:00,
2013-05-20 21:01:00,66.6,50.9,29.95,West,264,4.0,5.0,45,0.00,,,0.00,meteohub,2013-05-21 04:01:00,
2013-05-20 21:02:00,66.6,50.9,29.95,West,273,4.0,5.0,45,0.00,,,0.00,meteohub,2013-05-21 04:02:00,
2013-05-20 21:03:00,66.6,50.9,29.95,West,273,4.0,5.0,45,0.00,,,0.00,meteohub,2013-05-21 04:03:00,
2013-05-20 21:05:00,66.6,50.9,29.95,West,273,3.0,5.0,45,0.00,,,0.00,meteohub,2013-05-21 04:05:00,
2013-05-20 21:10:00,66.6,50.9,29.95,West,271,3.0,5.0,45,0.00,,,0.00,meteohub,2013-05-21 04:10:00,
2013-05-20 21:16:00,66.4,50.7,29.96,West,280,3.0,5.0,45,0.00,,,0.00,meteohub,2013-05-21 04:16:00,
2013-05-20 21:21:00,66.4,50.7,29.96,West,274,5.0,5.0,45,0.00,,,0.00,meteohub,2013-05-21 04:21:00,
2013-05-20 21:26:00,66.4,50.7,29.96,West,262,5.0,6.0,45,0.00,,,0.00,meteohub,2013-05-21 04:26:00,
2013-05-20 21:32:00,66.4,50.5,29.96,West,260,4.0,6.0,45,0.00,,,0.00,meteohub,2013-05-21 04:32:00,
2013-05-20 21:37:00,66.4,50.5,29.96,West,259,5.0,6.0,45,0.00,,,0.00,meteohub,2013-05-21 04:37:00,
2013-05-20 21:42:00,66.2,50.5,29.96,WSW,256,4.0,7.0,45,0.00,,,0.00,meteohub,2013-05-21 04:42:00,
2013-05-20 21:47:00,66.0,50.5,29.96,West,274,4.0,7.0,45,0.00,,,0.00,meteohub,2013-05-21 04:47:00,
2013-05-20 21:52:00,65.8,50.4,29.97,West,262,5.0,7.0,45,0.00,,,0.00,meteohub,2013-05-21 04:52:00,
2013-05-20 21:57:00,66.0,50.4,29.97,West,273,5.0,7.0,45,0.00,,,0.00,meteohub,2013-05-21 04:57:00,
2013-05-20 22:03:00,66.0,50.4,29.97,West,259,4.0,7.0,45,0.00,,,0.00,meteohub,2013-05-21 05:03:00,
2013-05-20 22:08:00,66.0,50.4,29.97,WSW,255,4.0,7.0,45,0.00,,,0.00,meteohub,2013-05-21 05:08:00,
2013-05-20 22:13:00,66.0,50.4,29.97,West,271,3.0,6.0,45,0.00,,,0.00,meteohub,2013-05-21 05:13:00,
2013-05-20 22:19:00,66.0,50.4,29.97,West,263,4.0,6.0,45,0.00,,,0.00,meteohub,2013-05-21 05:19:00,
2013-05-20 22:24:00,66.0,50.4,29.97,West,271,5.0,5.0,45,0.00,,,0.00,meteohub,2013-05-21 05:24:00,
2013-05-20 22:30:00,66.0,50.4,29.97,West,273,4.0,6.0,45,0.00,,,0.00,meteohub,2013-05-21 05:30:00,
2013-05-20 22:35:00,66.0,50.4,29.97,West,266,4.0,6.0,45,0.00,,,0.00,meteohub,2013-05-21 05:35:00,
2013-05-20 22:41:00,66.2,50.4,29.97,West,263,3.0,6.0,45,0.00,,,0.00,meteohub,2013-05-21 05:41:00,
2013-05-20 22:46:00,66.2,50.2,29.97,West,280,4.0,6.0,45,0.00,,,0.00,meteohub,2013-05-21 05:46:00,
2013-05-20 22:52:00,66.2,50.2,29.97,West,270,2.0,6.0,45,0.00,,,0.00,meteohub,2013-05-21 05:52:00,
2013-05-20 22:57:00,66.0,50.2,29.97,West,266,4.0,6.0,45,0.00,,,0.00,meteohub,2013-05-21 05:57:00,
2013-05-20 23:02:00,65.8,50.2,29.97,West,266,4.0,6.0,45,0.00,,,0.00,meteohub,2013-05-21 06:02:00,
2013-05-20 23:07:00,65.8,50.0,29.96,WNW,285,2.0,6.0,45,0.00,,,0.00,meteohub,2013-05-21 06:07:00,
2013-05-20 23:13:00,65.7,50.0,29.97,West,266,3.0,5.0,45,0.00,,,0.00,meteohub,2013-05-21 06:13:00,
2013-05-20 23:18:00,65.8,49.8,29.97,West,264,3.0,5.0,45,0.00,,,0.00,meteohub,2013-05-21 06:18:00,
2013-05-20 23:24:00,65.8,49.8,29.96,West,263,4.0,5.0,45,0.00,,,0.00,meteohub,2013-05-21 06:24:00,
2013-05-20 23:29:00,65.7,49.8,29.96,West,270,2.0,6.0,45,0.00,,,0.00,meteohub,2013-05-21 06:29:00,
2013-05-20 23:34:00,65.8,49.8,29.96,West,271,5.0,6.0,45,0.00,,,0.00,meteohub,2013-05-21 06:34:00,
2013-05-20 23:39:00,66.0,49.1,29.96,West,270,3.0,6.0,44,0.00,,,0.00,meteohub,2013-05-21 06:39:00,
2013-05-20 23:45:00,65.8,49.1,29.96,West,270,3.0,5.0,44,0.00,,,0.00,meteohub,2013-05-21 06:45:00,
2013-05-20 23:50:00,65.8,49.1,29.96,West,268,3.0,5.0,44,0.00,,,0.00,meteohub,2013-05-21 06:50:00,
2013-05-20 23:55:00,65.8,49.1,29.96,West,270,4.0,6.0,44,0.00,,,0.00,meteohub,2013-05-21 06:55:00,